Time,TemperatureF,DewpointF,PressureIn,WindDirection,WindDirectionDegrees,WindSpeedMPH,WindSpeedGustMPH,Humidity,HourlyPrecipIn,Conditions,Clouds,dailyrainin,SolarRadiationWatts/m^2,SoftwareType,DateUTC
2013-07-10 00:05:00,67.5,61.1,25.97,SE,130,1.0,1.0,80,0.00,,,0.00,0,Wunderground v.1.15,2013-07-10 06:05:00,
2013-07-10 00:10:00,67.7,61.0,25.97,East,86,1.0,3.0,79,0.00,,,0.00,0,Wunderground v.1.15,2013-07-10 06:10:00,
2013-07-10 00:15:00,68.0,60.9,25.97,East,86,1.0,3.0,78,0.00,,,0.00,0,Wunderground v.1.15,2013-07-10 06:15:00,
2013-07-10 00:20:00,68.0,61.2,25.96,NNW,336,1.0,1.0,79,0.00,,,0.00,0,Wunderground v.1.15,2013-07-10 06:20:00,
2013-07-10 00:25:00,67.8,61.0,25.96,ESE,117,1.0,1.0,79,0.00,,,0.00,0,Wunderground v.1.15,2013-07-10 06:25:00,
2013-07-10 00:30:00,67.8,61.0,25.96,ESE,117,1.0,1.0,79,0.00,,,0.00,0,Wunderground v.1.15,2013-07-10 06:30:00,
2013-07-10 00:40:00,67.7,60.6,25.96,East,90,1.0,6.0,78,0.00,,,0.00,0,Wunderground v.1.15,2013-07-10 06:40:00,
2013-07-10 00:50:00,68.2,60.3,25.97,East,96,3.0,3.0,76,0.00,,,0.00,0,Wunderground v.1.15,2013-07-10 06:50:00,
2013-07-10 00:55:00,68.3,60.4,25.97,SE,139,3.0,3.0,76,0.00,,,0.00,0,Wunderground v.1.15,2013-07-10 06:55:00,
2013-07-10 01:00:00,68.5,60.3,25.97,South,188,3.0,3.0,75,0.00,,,0.00,0,Wunderground v.1.15,2013-07-10 07:00:00,
2013-07-10 01:05:00,68.7,60.8,25.96,NE,42,2.0,3.0,76,0.00,,,0.00,0,Wunderground v.1.15,2013-07-10 07:05:00,
2013-07-10 01:10:00,68.7,61.2,25.96,NE,48,2.0,2.0,77,0.00,,,0.00,0,Wunderground v.1.15,2013-07-10 07:10:00,
2013-07-10 01:15:00,68.5,61.4,25.96,ESE,117,1.0,2.0,78,0.00,,,0.00,0,Wunderground v.1.15,2013-07-10 07:15:00,
2013-07-10 01:25:00,68.2,61.4,25.96,ENE,73,1.0,1.0,79,0.00,,,0.00,0,Wunderground v.1.15,2013-07-10 07:25:00,
2013-07-10 01:30:00,68.0,61.2,25.96,ENE,72,1.0,1.0,79,0.00,,,0.00,0,Wunderground v.1.15,2013-07-10 07:30:00,
2013-07-10 01:35:00,67.8,61.4,25.95,ENE,72,0.0,1.0,80,0.00,,,0.00,0,Wunderground v.1.15,2013-07-10 07:35:00,
2013-07-10 01:40:00,67.7,61.3,25.95,ENE,73,0.0,0.0,80,0.00,,,0.00,0,Wunderground v.1.15,2013-07-10 07:40:00,
2013-07-10 01:45:00,67.5,61.5,25.94,ENE,73,0.0,0.0,81,0.00,,,0.00,0,Wunderground v.1.15,2013-07-10 07:45:00,
2013-07-10 01:50:00,67.2,61.2,25.94,ENE,72,0.0,1.0,81,0.00,,,0.00,0,Wunderground v.1.15,2013-07-10 07:50:00,
2013-07-10 01:55:00,66.8,60.8,25.94,NE,44,1.0,1.0,81,0.00,,,0.00,0,Wunderground v.1.15,2013-07-10 07:55:00,
2013-07-10 02:00:00,66.7,60.7,25.93,NE,44,0.0,0.0,81,0.00,,,0.00,0,Wunderground v.1.15,2013-07-10 08:00:00,
2013-07-10 02:10:00,66.5,60.5,25.93,NE,44,0.0,0.0,81,0.00,,,0.00,0,Wunderground v.1.15,2013-07-10 08:10:00,
2013-07-10 02:15:00,66.5,60.5,25.93,NE,44,0.0,0.0,81,0.00,,,0.00,0,Wunderground v.1.15,2013-07-10 08:15:00,
2013-07-10 02:20:00,66.3,60.3,25.93,NE,44,0.0,0.0,81,0.00,,,0.00,0,Wunderground v.1.15,2013-07-10 08:20:00,
2013-07-10 02:25:00,66.2,60.2,25.93,SSE,156,0.0,1.0,81,0.00,,,0.00,0,Wunderground v.1.15,2013-07-10 08:25:00,
2013-07-10 02:30:00,66.3,60.3,25.93,SSE,167,1.0,1.0,81,0.00,,,0.00,0,Wunderground v.1.15,2013-07-10 08:30:00,
2013-07-10 02:35:00,66.3,60.3,25.92,SSE,167,1.0,1.0,81,0.00,,,0.00,0,Wunderground v.1.15,2013-07-10 08:35:00,
2013-07-10 02:40:00,66.3,60.3,25.92,East,84,0.0,1.0,81,0.00,,,0.00,0,Wunderground v.1.15,2013-07-10 08:40:00,
2013-07-10 02:45:00,66.5,60.5,25.92,East,84,0.0,1.0,81,0.00,,,0.00,0,Wunderground v.1.15,2013-07-10 08:45:00,
2013-07-10 02:55:00,66.5,60.8,25.92,East,84,0.0,1.0,82,0.00,,,0.00,0,Wunderground v.1.15,2013-07-10 08:55:00,
2013-07-10 03:00:00,66.3,60.3,25.92,ESE,105,0.0,2.0,81,0.00,,,0.00,0,Wunderground v.1.15,2013-07-10 09:00:00,
2013-07-10 03:10:00,66.2,59.8,25.92,ENE,58,0.0,0.0,80,0.00,,,0.00,0,Wunderground v.1.15,2013-07-10 09:10:00,
2013-07-10 03:15:00,66.0,60.0,25.92,East,84,0.0,3.0,81,0.00,,,0.00,0,Wunderground v.1.15,2013-07-10 09:15:00,
2013-07-10 03:25:00,66.5,60.5,25.92,SE,140,1.0,1.0,81,0.00,,,0.00,0,Wunderground v.1.15,2013-07-10 09:25:00,
2013-07-10 03:30:00,66.5,60.5,25.92,SE,140,0.0,0.0,81,0.00,,,0.00,0,Wunderground v.1.15,2013-07-10 09:30:00,
2013-07-10 03:40:00,66.7,61.0,25.92,SSE,167,1.0,1.0,82,0.00,,,0.00,0,Wunderground v.1.15,2013-07-10 09:40:00,
2013-07-10 03:45:00,66.7,61.0,25.92,SSE,167,0.0,1.0,82,0.00,,,0.00,0,Wunderground v.1.15,2013-07-10 09:45:00,
2013-07-10 03:55:00,66.7,61.0,25.92,NW,311,1.0,2.0,82,0.00,,,0.00,0,Wunderground v.1.15,2013-07-10 09:55:00,
2013-07-10 04:00:00,66.7,61.0,25.92,NW,308,1.0,1.0,82,0.00,,,0.00,0,Wunderground v.1.15,2013-07-10 10:00:00,
2013-07-10 04:10:00,66.8,61.1,25.92,East,82,1.0,1.0,82,0.00,,,0.00,0,Wunderground v.1.15,2013-07-10 10:10:00,
2013-07-10 04:15:00,66.8,61.5,25.92,West,277,1.0,1.0,83,0.00,,,0.00,0,Wunderground v.1.15,2013-07-10 10:15:00,
2013-07-10 04:25:00,67.2,61.9,25.92,NE,51,3.0,4.0,83,0.00,,,0.00,0,Wunderground v.1.15,2013-07-10 10:25:00,
2013-07-10 04:30:00,67.2,61.5,25.92,North,355,2.0,4.0,82,0.00,,,0.00,0,Wunderground v.1.15,2013-07-10 10:30:00,
2013-07-10 04:40:00,67.3,61.6,25.92,NW,317,3.0,3.0,82,0.00,,,0.00,0,Wunderground v.1.15,2013-07-10 10:40:00,
2013-07-10 04:50:00,67.2,61.5,25.93,SE,129,2.0,2.0,82,0.00,,,0.00,0,Wunderground v.1.15,2013-07-10 10:50:00,
2013-07-10 05:00:00,67.2,61.2,25.93,SSE,159,1.0,1.0,81,0.00,,,0.00,0,Wunderground v.1.15,2013-07-10 11:00:00,
2013-07-10 05:10:00,67.2,60.8,25.93,SSE,167,1.0,2.0,80,0.00,,,0.00,0,Wunderground v.1.15,2013-07-10 11:10:00,
2013-07-10 05:15:00,67.2,60.8,25.94,East,95,1.0,5.0,80,0.00,,,0.00,0,Wunderground v.1.15,2013-07-10 11:15:00,
2013-07-10 05:25:00,67.5,60.8,25.94,SE,142,1.0,2.0,79,0.00,,,0.00,0,Wunderground v.1.15,2013-07-10 11:25:00,
2013-07-10 05:35:00,67.5,61.1,25.94,NW,319,1.0,1.0,80,0.00,,,0.00,12,Wunderground v.1.15,2013-07-10 11:35:00,
2013-07-10 05:45:00,67.5,61.5,25.95,NNW,340,0.0,0.0,81,0.00,,,0.00,28,Wunderground v.1.15,2013-07-10 11:45:00,
2013-07-10 05:55:00,67.5,61.5,25.95,NNW,340,0.0,0.0,81,0.00,,,0.00,46,Wunderground v.1.15,2013-07-10 11:55:00,
2013-07-10 06:00:00,67.7,61.7,25.95,NNW,340,0.0,0.0,81,0.00,,,0.00,86,Wunderground v.1.15,2013-07-10 12:00:00,
2013-07-10 06:10:00,68.3,61.9,25.95,NNW,340,0.0,0.0,80,0.00,,,0.00,109,Wunderground v.1.15,2013-07-10 12:10:00,
2013-07-10 06:15:00,68.7,61.6,25.95,NNW,340,0.0,0.0,78,0.00,,,0.00,158,Wunderground v.1.15,2013-07-10 12:15:00,
2013-07-10 06:25:00,69.8,61.9,25.95,NNW,340,0.0,0.0,76,0.00,,,0.00,200,Wunderground v.1.15,2013-07-10 12:25:00,
2013-07-10 06:30:00,70.3,61.6,25.95,NNW,340,0.0,0.0,74,0.00,,,0.00,225,Wunderground v.1.15,2013-07-10 12:30:00,
2013-07-10 06:40:00,71.2,61.3,25.95,WSW,252,1.0,1.0,71,0.00,,,0.00,223,Wunderground v.1.15,2013-07-10 12:40:00,
2013-07-10 06:50:00,71.5,61.6,25.94,South,169,0.0,0.0,71,0.00,,,0.00,269,Wunderground v.1.15,2013-07-10 12:50:00,
2013-07-10 07:00:00,72.4,62.1,25.95,SSE,165,0.0,0.0,70,0.00,,,0.00,121,Wunderground v.1.15,2013-07-10 13:00:00,
2013-07-10 07:10:00,72.2,61.5,25.95,SSE,165,0.0,2.0,69,0.00,,,0.00,167,Wunderground v.1.15,2013-07-10 13:10:00,
2013-07-10 07:15:00,72.2,60.6,25.95,SW,216,1.0,2.0,67,0.00,,,0.00,283,Wunderground v.1.15,2013-07-10 13:15:00,
2013-07-10 07:25:00,72.7,61.1,25.95,WNW,294,1.0,2.0,67,0.00,,,0.00,294,Wunderground v.1.15,2013-07-10 13:25:00,
2013-07-10 07:30:00,72.9,60.9,25.95,WSW,245,1.0,1.0,66,0.00,,,0.00,383,Wunderground v.1.15,2013-07-10 13:30:00,
2013-07-10 07:40:00,72.6,61.4,25.96,NW,317,2.0,2.0,68,0.00,,,0.00,406,Wunderground v.1.15,2013-07-10 13:40:00,
2013-07-10 07:45:00,72.6,61.8,25.96,South,170,2.0,2.0,69,0.00,,,0.00,204,Wunderground v.1.15,2013-07-10 13:45:00,
2013-07-10 07:55:00,72.4,61.7,25.96,ESE,103,2.0,2.0,69,0.00,,,0.00,297,Wunderground v.1.15,2013-07-10 13:55:00,
2013-07-10 08:05:00,71.7,61.8,25.96,ESE,108,3.0,3.0,71,0.00,,,0.00,181,Wunderground v.1.15,2013-07-10 14:05:00,
2013-07-10 08:15:00,71.5,61.6,25.96,South,182,2.0,3.0,71,0.00,,,0.00,218,Wunderground v.1.15,2013-07-10 14:15:00,
2013-07-10 08:25:00,72.2,61.9,25.97,NNE,13,3.0,7.0,70,0.00,,,0.00,265,Wunderground v.1.15,2013-07-10 14:25:00,
2013-07-10 08:35:00,72.7,61.5,25.98,WNW,291,3.0,3.0,68,0.00,,,0.00,294,Wunderground v.1.15,2013-07-10 14:35:00,
2013-07-10 08:45:00,72.6,62.3,25.98,East,80,3.0,3.0,70,0.00,,,0.00,176,Wunderground v.1.15,2013-07-10 14:45:00,
2013-07-10 08:55:00,72.0,61.7,25.98,SE,131,3.0,5.0,70,0.00,,,0.00,193,Wunderground v.1.15,2013-07-10 14:55:00,
2013-07-10 09:00:00,71.7,61.8,25.98,South,190,3.0,3.0,71,0.00,,,0.00,190,Wunderground v.1.15,2013-07-10 15:00:00,
2013-07-10 09:05:00,71.7,61.8,25.97,NE,36,2.0,3.0,71,0.00,,,0.00,130,Wunderground v.1.15,2013-07-10 15:05:00,
2013-07-10 09:15:00,71.7,62.2,25.97,NNE,25,2.0,2.0,72,0.00,,,0.00,174,Wunderground v.1.15,2013-07-10 15:15:00,
2013-07-10 09:25:00,72.2,61.9,25.97,ENE,59,3.0,3.0,70,0.00,,,0.00,246,Wunderground v.1.15,2013-07-10 15:25:00,
2013-07-10 09:35:00,73.1,62.3,25.97,NW,310,2.0,6.0,69,0.00,,,0.00,513,Wunderground v.1.15,2013-07-10 15:35:00,
2013-07-10 09:40:00,73.8,62.2,25.97,ENE,76,3.0,5.0,67,0.00,,,0.00,271,Wunderground v.1.15,2013-07-10 15:40:00,
2013-07-10 09:45:00,73.6,62.8,25.97,ESE,112,3.0,5.0,69,0.00,,,0.00,279,Wunderground v.1.15,2013-07-10 15:45:00,
2013-07-10 09:55:00,74.6,62.5,25.97,North,11,4.0,7.0,66,0.00,,,0.00,482,Wunderground v.1.15,2013-07-10 15:55:00,
2013-07-10 10:00:00,74.8,62.7,25.97,NNE,24,4.0,4.0,66,0.00,,,0.00,199,Wunderground v.1.15,2013-07-10 16:00:00,
2013-07-10 10:10:00,73.8,62.6,25.97,NE,53,5.0,5.0,68,0.00,,,0.00,299,Wunderground v.1.15,2013-07-10 16:10:00,
2013-07-10 10:20:00,73.6,62.4,25.97,North,355,3.0,7.0,68,0.00,,,0.00,241,Wunderground v.1.15,2013-07-10 16:20:00,
2013-07-10 10:30:00,74.5,62.4,25.97,ENE,58,3.0,3.0,66,0.00,,,0.00,415,Wunderground v.1.15,2013-07-10 16:30:00,
2013-07-10 10:40:00,75.2,62.6,25.96,NNW,347,4.0,5.0,65,0.00,,,0.00,541,Wunderground v.1.15,2013-07-10 16:40:00,
2013-07-10 10:50:00,75.9,62.8,25.96,ENE,58,3.0,3.0,64,0.00,,,0.00,315,Wunderground v.1.15,2013-07-10 16:50:00,
2013-07-10 10:55:00,75.7,63.1,25.96,NNE,32,3.0,4.0,65,0.00,,,0.00,564,Wunderground v.1.15,2013-07-10 16:55:00,
2013-07-10 11:05:00,76.0,63.4,25.95,WNW,300,3.0,4.0,65,0.00,,,0.00,504,Wunderground v.1.15,2013-07-10 17:05:00,
2013-07-10 11:10:00,76.0,63.4,25.96,North,355,3.0,3.0,65,0.00,,,0.00,401,Wunderground v.1.15,2013-07-10 17:10:00,
2013-07-10 11:20:00,76.9,62.4,25.96,East,94,3.0,3.0,61,0.00,,,0.00,445,Wunderground v.1.15,2013-07-10 17:20:00,
2013-07-10 11:30:00,78.0,63.0,25.95,NNE,22,3.0,5.0,60,0.00,,,0.00,888,Wunderground v.1.15,2013-07-10 17:30:00,
2013-07-10 11:40:00,78.4,63.4,25.95,West,269,3.0,5.0,60,0.00,,,0.00,986,Wunderground v.1.15,2013-07-10 17:40:00,
2013-07-10 11:45:00,78.5,63.0,25.94,NE,46,4.0,5.0,59,0.00,,,0.00,981,Wunderground v.1.15,2013-07-10 17:45:00,
2013-07-10 11:50:00,78.5,62.5,25.94,NNE,17,4.0,4.0,58,0.00,,,0.00,352,Wunderground v.1.15,2013-07-10 17:50:00,
2013-07-10 12:00:00,78.0,62.5,25.94,NNW,344,4.0,6.0,59,0.00,,,0.00,459,Wunderground v.1.15,2013-07-10 18:00:00,
2013-07-10 12:10:00,77.8,62.3,25.94,NW,324,3.0,5.0,59,0.00,,,0.00,946,Wunderground v.1.15,2013-07-10 18:10:00,
2013-07-10 12:20:00,77.8,61.8,25.94,NW,323,4.0,4.0,58,0.00,,,0.00,334,Wunderground v.1.15,2013-07-10 18:20:00,
2013-07-10 12:25:00,77.8,62.8,25.94,SE,129,4.0,4.0,60,0.00,,,0.00,339,Wunderground v.1.15,2013-07-10 18:25:00,
2013-07-10 12:30:00,77.5,63.0,25.94,North,11,3.0,6.0,61,0.00,,,0.00,338,Wunderground v.1.15,2013-07-10 18:30:00,
2013-07-10 12:40:00,76.0,62.5,25.94,NNE,30,4.0,4.0,63,0.00,,,0.00,294,Wunderground v.1.15,2013-07-10 18:40:00,
2013-07-10 12:50:00,75.9,62.4,25.93,East,84,3.0,11.0,63,0.00,,,0.00,221,Wunderground v.1.15,2013-07-10 18:50:00,
2013-07-10 12:55:00,75.7,62.7,25.93,NNE,22,4.0,11.0,64,0.00,,,0.00,206,Wunderground v.1.15,2013-07-10 18:55:00,
2013-07-10 13:00:00,75.7,62.7,25.93,NNW,336,3.0,3.0,64,0.00,,,0.00,218,Wunderground v.1.15,2013-07-10 19:00:00,
2013-07-10 13:10:00,76.4,62.4,25.92,ENE,75,5.0,5.0,62,0.00,,,0.00,819,Wunderground v.1.15,2013-07-10 19:10:00,
2013-07-10 13:15:00,76.9,62.4,25.92,WSW,244,5.0,5.0,61,0.00,,,0.00,868,Wunderground v.1.15,2013-07-10 19:15:00,
2013-07-10 13:25:00,77.1,63.1,25.92,NNW,347,6.0,7.0,62,0.00,,,0.00,729,Wunderground v.1.15,2013-07-10 19:25:00,
2013-07-10 13:30:00,76.6,63.1,25.92,NE,42,6.0,6.0,63,0.00,,,0.00,844,Wunderground v.1.15,2013-07-10 19:30:00,
2013-07-10 13:40:00,76.6,64.0,25.91,NNE,14,6.0,6.0,65,0.00,,,0.00,816,Wunderground v.1.15,2013-07-10 19:40:00,
2013-07-10 13:50:00,77.6,63.1,25.91,NE,51,5.0,5.0,61,0.00,,,0.00,809,Wunderground v.1.15,2013-07-10 19:50:00,
2013-07-10 13:55:00,77.3,63.3,25.91,NNW,339,5.0,5.0,62,0.00,,,0.00,731,Wunderground v.1.15,2013-07-10 19:55:00,
2013-07-10 14:05:00,77.8,63.7,25.91,NE,55,4.0,5.0,62,0.00,,,0.00,782,Wunderground v.1.15,2013-07-10 20:05:00,
2013-07-10 14:15:00,77.1,62.6,25.91,NNW,346,6.0,6.0,61,0.00,,,0.00,446,Wunderground v.1.15,2013-07-10 20:15:00,
2013-07-10 14:25:00,75.5,62.5,25.91,NE,52,5.0,6.0,64,0.00,,,0.00,237,Wunderground v.1.15,2013-07-10 20:25:00,
2013-07-10 14:35:00,75.0,62.9,25.91,NNW,344,5.0,6.0,66,0.00,,,0.00,294,Wunderground v.1.15,2013-07-10 20:35:00,
2013-07-10 14:45:00,75.0,62.9,25.90,NNE,24,4.0,9.0,66,0.00,,,0.00,258,Wunderground v.1.15,2013-07-10 20:45:00,
2013-07-10 14:50:00,74.8,62.7,25.90,South,171,4.0,4.0,66,0.00,,,0.00,265,Wunderground v.1.15,2013-07-10 20:50:00,
2013-07-10 14:55:00,75.2,63.5,25.90,North,360,3.0,7.0,67,0.00,,,0.00,281,Wunderground v.1.15,2013-07-10 20:55:00,
2013-07-10 15:05:00,75.2,63.1,25.90,NNE,26,4.0,10.0,66,0.00,,,0.00,301,Wunderground v.1.15,2013-07-10 21:05:00,
2013-07-10 15:10:00,74.8,63.1,25.90,NE,36,5.0,5.0,67,0.00,,,0.00,246,Wunderground v.1.15,2013-07-10 21:10:00,
2013-07-10 15:15:00,74.3,63.1,25.90,NW,306,5.0,5.0,68,0.00,,,0.00,225,Wunderground v.1.15,2013-07-10 21:15:00,
2013-07-10 15:25:00,74.1,63.3,25.90,WSW,240,4.0,5.0,69,0.00,,,0.00,243,Wunderground v.1.15,2013-07-10 21:25:00,
2013-07-10 15:30:00,74.1,62.9,25.89,ESE,114,4.0,4.0,68,0.00,,,0.00,260,Wunderground v.1.15,2013-07-10 21:30:00,
2013-07-10 15:40:00,73.9,63.1,25.89,NE,48,5.0,5.0,69,0.00,,,0.00,272,Wunderground v.1.15,2013-07-10 21:40:00,
2013-07-10 15:45:00,74.3,63.5,25.89,North,360,4.0,5.0,69,0.00,,,0.00,234,Wunderground v.1.15,2013-07-10 21:45:00,
2013-07-10 15:55:00,73.9,63.1,25.89,NNE,17,4.0,4.0,69,0.00,,,0.00,163,Wunderground v.1.15,2013-07-10 21:55:00,
2013-07-10 16:00:00,73.6,63.2,25.89,North,5,3.0,6.0,70,0.00,,,0.00,121,Wunderground v.1.15,2013-07-10 22:00:00,
2013-07-10 16:10:00,72.9,63.3,25.89,NNW,348,4.0,4.0,72,0.00,,,0.00,116,Wunderground v.1.15,2013-07-10 22:10:00,
2013-07-10 16:20:00,72.7,63.1,25.89,NNE,26,2.0,2.0,72,0.00,,,0.00,105,Wunderground v.1.15,2013-07-10 22:20:00,
2013-07-10 16:30:00,72.4,62.5,25.90,NE,43,3.0,6.0,71,0.00,,,0.00,90,Wunderground v.1.15,2013-07-10 22:30:00,
2013-07-10 16:40:00,71.7,62.2,25.91,ENE,67,4.0,5.0,72,0.00,,,0.00,60,Wunderground v.1.15,2013-07-10 22:40:00,
2013-07-10 16:50:00,70.8,62.1,25.92,WNW,290,4.0,4.0,74,0.00,,,0.00,28,Wunderground v.1.15,2013-07-10 22:50:00,
2013-07-10 17:00:00,70.7,62.4,25.93,ENE,61,2.0,2.0,75,0.00,,,0.00,11,Wunderground v.1.15,2013-07-10 23:00:00,
2013-07-10 17:10:00,70.2,63.0,25.93,NNE,31,3.0,3.0,78,0.00,,,0.00,11,Wunderground v.1.15,2013-07-10 23:10:00,
2013-07-10 17:20:00,69.3,63.2,25.92,NNE,19,2.0,3.0,81,0.00,,,0.00,12,Wunderground v.1.15,2013-07-10 23:20:00,
2013-07-10 17:30:00,68.0,62.3,25.92,North,5,3.0,3.0,82,0.00,,,0.00,14,Wunderground v.1.15,2013-07-10 23:30:00,
2013-07-10 17:35:00,67.8,61.8,25.92,ENE,65,3.0,4.0,81,0.00,,,0.00,7,Wunderground v.1.15,2013-07-10 23:35:00,
2013-07-10 17:40:00,67.8,61.8,25.93,NE,41,3.0,4.0,81,0.00,,,0.00,0,Wunderground v.1.15,2013-07-10 23:40:00,
2013-07-10 17:50:00,67.8,61.4,25.92,NW,320,3.0,3.0,80,0.00,,,0.00,0,Wunderground v.1.15,2013-07-10 23:50:00,
2013-07-10 17:55:00,67.8,61.0,25.92,West,280,3.0,6.0,79,0.00,,,0.00,0,Wunderground v.1.15,2013-07-10 23:55:00,
2013-07-10 18:05:00,68.2,61.1,25.92,NNW,327,3.0,7.0,78,0.00,,,0.00,0,Wunderground v.1.15,2013-07-11 00:05:00,
2013-07-10 18:15:00,68.5,61.7,25.93,NW,304,2.0,2.0,79,0.00,,,0.00,0,Wunderground v.1.15,2013-07-11 00:15:00,
2013-07-10 18:20:00,68.5,61.4,25.93,NW,314,2.0,2.0,78,0.00,,,0.00,0,Wunderground v.1.15,2013-07-11 00:20:00,
2013-07-10 18:30:00,68.3,61.5,25.94,West,263,2.0,2.0,79,0.00,,,0.00,0,Wunderground v.1.15,2013-07-11 00:30:00,
2013-07-10 18:40:00,68.5,62.1,25.93,NW,304,2.0,4.0,80,0.00,,,0.00,0,Wunderground v.1.15,2013-07-11 00:40:00,
2013-07-10 18:50:00,68.5,62.8,25.93,West,267,2.0,3.0,82,0.00,,,0.00,0,Wunderground v.1.15,2013-07-11 00:50:00,
2013-07-10 18:55:00,68.7,63.3,25.94,NNE,15,1.0,3.0,83,0.00,,,0.01,0,Wunderground v.1.15,2013-07-11 00:55:00,
2013-07-10 19:05:00,68.3,62.9,25.94,NW,306,1.0,2.0,83,0.00,,,0.01,0,Wunderground v.1.15,2013-07-11 01:05:00,
2013-07-10 19:10:00,68.2,62.8,25.95,NW,306,0.0,1.0,83,0.00,,,0.01,0,Wunderground v.1.15,2013-07-11 01:10:00,
2013-07-10 19:15:00,68.0,62.3,25.95,North,355,1.0,1.0,82,0.00,,,0.01,0,Wunderground v.1.15,2013-07-11 01:15:00,
2013-07-10 19:25:00,68.0,61.9,25.94,NW,317,2.0,2.0,81,0.00,,,0.01,0,Wunderground v.1.15,2013-07-11 01:25:00,
2013-07-10 19:35:00,67.8,61.8,25.95,WNW,296,1.0,3.0,81,0.00,,,0.01,0,Wunderground v.1.15,2013-07-11 01:35:00,
2013-07-10 19:40:00,67.8,61.8,25.95,ENE,73,1.0,4.0,81,0.00,,,0.01,0,Wunderground v.1.15,2013-07-11 01:40:00,
2013-07-10 19:50:00,67.7,61.7,25.96,NW,313,1.0,1.0,81,0.00,,,0.01,0,Wunderground v.1.15,2013-07-11 01:50:00,
2013-07-10 20:00:00,67.7,61.7,25.95,NNE,21,1.0,2.0,81,0.00,,,0.01,0,Wunderground v.1.15,2013-07-11 02:00:00,
2013-07-10 20:10:00,67.8,61.8,25.95,NE,37,1.0,1.0,81,0.00,,,0.01,0,Wunderground v.1.15,2013-07-11 02:10:00,
2013-07-10 20:15:00,67.8,62.1,25.96,NE,37,0.0,1.0,82,0.00,,,0.01,0,Wunderground v.1.15,2013-07-11 02:15:00,
2013-07-10 20:25:00,67.7,62.0,25.95,NE,37,0.0,1.0,82,0.00,,,0.01,0,Wunderground v.1.15,2013-07-11 02:25:00,
2013-07-10 20:30:00,67.5,61.8,25.95,ESE,123,1.0,1.0,82,0.00,,,0.01,0,Wunderground v.1.15,2013-07-11 02:30:00,
2013-07-10 20:40:00,67.5,61.8,25.95,WNW,284,0.0,0.0,82,0.00,,,0.01,0,Wunderground v.1.15,2013-07-11 02:40:00,
2013-07-10 20:50:00,67.7,62.0,25.95,WNW,284,0.0,0.0,82,0.00,,,0.01,0,Wunderground v.1.15,2013-07-11 02:50:00,
2013-07-10 20:55:00,67.8,62.1,25.96,WNW,284,0.0,0.0,82,0.00,,,0.01,0,Wunderground v.1.15,2013-07-11 02:55:00,
2013-07-10 21:05:00,67.8,62.1,25.96,WNW,284,0.0,0.0,82,0.00,,,0.01,0,Wunderground v.1.15,2013-07-11 03:05:00,
2013-07-10 21:15:00,67.8,62.1,25.96,WNW,284,0.0,0.0,82,0.00,,,0.01,0,Wunderground v.1.15,2013-07-11 03:15:00,
2013-07-10 21:25:00,67.7,62.0,25.97,WNW,284,0.0,1.0,82,0.00,,,0.01,0,Wunderground v.1.15,2013-07-11 03:25:00,
2013-07-10 21:35:00,67.8,61.8,25.98,North,10,0.0,0.0,81,0.00,,,0.01,0,Wunderground v.1.15,2013-07-11 03:35:00,
2013-07-10 21:40:00,68.2,62.1,25.98,North,10,0.0,0.0,81,0.00,,,0.01,0,Wunderground v.1.15,2013-07-11 03:40:00,
2013-07-10 21:50:00,68.3,61.9,25.98,North,9,0.0,0.0,80,0.00,,,0.01,0,Wunderground v.1.15,2013-07-11 03:50:00,
2013-07-10 21:55:00,68.5,62.4,25.97,North,10,0.0,0.0,81,0.00,,,0.01,0,Wunderground v.1.15,2013-07-11 03:55:00,
2013-07-10 22:00:00,68.5,62.4,25.97,North,10,0.0,0.0,81,0.00,,,0.01,0,Wunderground v.1.15,2013-07-11 04:00:00,
2013-07-10 22:05:00,68.2,62.1,25.97,North,9,0.0,0.0,81,0.00,,,0.01,0,Wunderground v.1.15,2013-07-11 04:05:00,
2013-07-10 22:10:00,67.8,62.1,25.97,North,9,0.0,0.0,82,0.00,,,0.01,0,Wunderground v.1.15,2013-07-11 04:10:00,
2013-07-10 22:15:00,67.7,62.0,25.97,North,10,0.0,0.0,82,0.00,,,0.01,0,Wunderground v.1.15,2013-07-11 04:15:00,
2013-07-10 22:25:00,67.5,61.8,25.97,North,10,0.0,1.0,82,0.00,,,0.01,0,Wunderground v.1.15,2013-07-11 04:25:00,
2013-07-10 22:30:00,67.5,61.8,25.97,North,9,0.0,0.0,82,0.00,,,0.01,0,Wunderground v.1.15,2013-07-11 04:30:00,
2013-07-10 22:35:00,67.5,61.8,25.97,North,10,0.0,0.0,82,0.00,,,0.01,0,Wunderground v.1.15,2013-07-11 04:35:00,
2013-07-10 22:45:00,67.5,61.8,25.97,North,10,0.0,1.0,82,0.00,,,0.01,0,Wunderground v.1.15,2013-07-11 04:45:00,
2013-07-10 22:50:00,67.7,62.0,25.97,South,179,0.0,1.0,82,0.00,,,0.01,0,Wunderground v.1.15,2013-07-11 04:50:00,
2013-07-10 23:00:00,67.8,61.8,25.97,South,179,1.0,1.0,81,0.00,,,0.01,0,Wunderground v.1.15,2013-07-11 05:00:00,
2013-07-10 23:10:00,68.0,61.9,25.98,South,179,0.0,0.0,81,0.00,,,0.01,0,Wunderground v.1.15,2013-07-11 05:10:00,
2013-07-10 23:15:00,68.0,61.9,25.98,South,179,0.0,0.0,81,0.00,,,0.01,0,Wunderground v.1.15,2013-07-11 05:15:00,
2013-07-10 23:25:00,67.8,61.4,25.97,South,179,0.0,0.0,80,0.00,,,0.01,0,Wunderground v.1.15,2013-07-11 05:25:00,
2013-07-10 23:35:00,67.7,61.7,25.97,South,179,0.0,0.0,81,0.00,,,0.01,0,Wunderground v.1.15,2013-07-11 05:35:00,
2013-07-10 23:45:00,67.5,61.5,25.97,South,179,0.0,0.0,81,0.00,,,0.01,0,Wunderground v.1.15,2013-07-11 05:45:00,
2013-07-10 23:55:00,67.5,62.2,25.97,WSW,245,0.0,0.0,83,0.00,,,0.01,0,Wunderground v.1.15,2013-07-11 05:55:00,